| time (UTC) | temp F | wind direction | speed MPH | gust MPH | rain 1hr in | rain 24hr in | rain mn in | humidity % | barometer mb |
| 20260903100051 | 69 | 0 | 0.0 | 3.0 | 0.00 | 0.00 | 0.00 | 84 | 1010.6 |
| 20260903094554 | 69 | 348 | 1.0 | 3.0 | 0.00 | 0.00 | 0.00 | 83 | 1010.3 |
| 20260903093116 | 69 | 0 | 0.0 | 2.0 | 0.00 | 0.00 | 0.00 | 82 | 1010.3 |
| 20260903091554 | 69 | 0 | 0.0 | 2.0 | 0.00 | 0.00 | 0.00 | 81 | 1010.5 |
| 20260903090049 | 70 | 0 | 0.0 | 3.0 | 0.00 | 0.00 | 0.00 | 81 | 1010.3 |
| 20260903084547 | 69 | 345 | 0.0 | 3.0 | 0.00 | 0.00 | 0.00 | 81 | 1010.4 |
| 20260903083100 | 69 | 0 | 0.0 | 2.0 | 0.00 | 0.00 | 0.00 | 80 | 1010.7 |
| 20260903081557 | 70 | 0 | 0.0 | 2.0 | 0.00 | 0.00 | 0.00 | 80 | 1010.5 |
| 20260903080053 | 70 | 0 | 0.0 | 2.0 | 0.00 | 0.00 | 0.00 | 79 | 1010.9 |
| 20260903074618 | 70 | 0 | 0.0 | 2.0 | 0.00 | 0.00 | 0.00 | 78 | 1010.8 |
| 20260903073059 | 71 | 0 | 0.0 | 2.0 | 0.00 | 0.00 | 0.00 | 77 | 1010.9 |
| 20260903071550 | 71 | 330 | 0.0 | 2.0 | 0.00 | 0.00 | 0.00 | 76 | 1010.9 |
| 20260903070048 | 72 | 0 | 0.0 | 2.0 | 0.00 | 0.00 | 0.00 | 76 | 1011.0 |
| 20260903064554 | 72 | 0 | 0.0 | 2.0 | 0.00 | 0.00 | 0.00 | 75 | 1011.1 |
| 20260903063047 | 72 | 0 | 0.0 | 3.0 | 0.00 | 0.00 | 0.00 | 75 | 1011.0 |
| 20260903061551 | 73 | 348 | 1.0 | 3.0 | 0.00 | 0.00 | 0.00 | 73 | 1011.1 |
| 20260903060057 | 73 | 342 | 0.0 | 3.0 | 0.00 | 0.00 | 0.00 | 73 | 1011.4 |
| 20260903054553 | 73 | 352 | 0.0 | 4.0 | 0.00 | 0.00 | 0.00 | 72 | 1011.4 |
| 20260903053051 | 74 | 344 | 0.0 | 3.0 | 0.00 | 0.00 | 0.00 | 71 | 1011.3 |
| 20260903051554 | 74 | 325 | 1.0 | 4.0 | 0.00 | 0.00 | 0.00 | 71 | 1011.5 |
| 20260903050049 | 74 | 352 | 1.0 | 4.0 | 0.00 | 0.00 | 0.00 | 70 | 1011.4 |
| 20260903044554 | 74 | 9 | 0.0 | 3.0 | 0.00 | 0.00 | 0.00 | 69 | 1011.5 |
| 20260903043047 | 75 | 0 | 0.0 | 3.0 | 0.00 | 0.00 | 0.00 | 69 | 1011.7 |
| 20260903041553 | 75 | 0 | 0.0 | 2.0 | 0.00 | 0.00 | 0.00 | 69 | 1011.7 |
| 20260903040049 | 75 | 346 | 0.0 | 1.0 | 0.00 | 0.00 | 0.00 | 69 | 1011.7 |
| 20260903034605 | 75 | 0 | 0.0 | 3.0 | 0.00 | 0.00 | 0.00 | 68 | 1011.7 |
| 20260903033107 | 75 | 352 | 0.0 | 4.0 | 0.00 | 0.00 | 0.00 | 69 | 1011.8 |
| 20260903031612 | 74 | 0 | 0.0 | 2.0 | 0.00 | 0.00 | 0.00 | 70 | 1011.8 |
| 20260903030054 | 74 | 0 | 0.0 | 0.0 | 0.00 | 0.00 | 0.00 | 69 | 1011.8 |
| 20260903024548 | 75 | 0 | 0.0 | 0.0 | 0.00 | 0.00 | 0.00 | 68 | 1011.8 |
| 20260903023044 | 76 | 0 | 0.0 | 0.0 | 0.00 | 0.00 | 0.00 | 67 | 1011.8 |
| 20260903021550 | 76 | 0 | 0.0 | 0.0 | 0.00 | 0.00 | 0.00 | 65 | 1011.8 |
| 20260903020052 | 77 | 0 | 0.0 | 0.0 | 0.00 | 0.00 | 0.00 | 64 | 1011.6 |
| 20260903014555 | 78 | 0 | 0.0 | 0.0 | 0.00 | 0.00 | 0.00 | 62 | 1011.5 |
| 20260903013057 | 79 | 0 | 0.0 | 2.0 | 0.00 | 0.00 | 0.00 | 61 | 1011.3 |
| 20260903011556 | 80 | 351 | 0.0 | 3.0 | 0.00 | 0.00 | 0.00 | 60 | 1011.1 |
| 20260903004601 | 81 | 0 | 0.0 | 1.0 | 0.00 | 0.00 | 0.00 | 58 | 1010.9 |
| 20260903003058 | 82 | 0 | 1.0 | 3.0 | 0.00 | 0.00 | 0.00 | 57 | 1011.1 |
| 20260903000058 | 83 | 0 | 0.0 | 4.0 | 0.00 | 0.00 | 0.00 | 54 | 1011.0 |
| 20260902234605 | 84 | 346 | 1.0 | 3.0 | 0.00 | 0.00 | 0.00 | 53 | 1010.8 |
| 20260902233105 | 84 | 5 | 2.0 | 6.0 | 0.00 | 0.00 | 0.00 | 52 | 1010.9 |
| 20260902231549 | 84 | 348 | 2.0 | 6.0 | 0.00 | 0.00 | 0.00 | 53 | 1010.9 |
| 20260902230057 | 85 | 334 | 2.0 | 5.0 | 0.00 | 0.00 | 0.00 | 52 | 1011.0 |
| 20260902224551 | 85 | 311 | 1.0 | 5.0 | 0.00 | 0.00 | 0.00 | 53 | 1011.1 |
| 20260902223054 | 85 | 313 | 1.0 | 6.0 | 0.00 | 0.00 | 0.00 | 52 | 1011.0 |
| 20260902221549 | 85 | 348 | 2.0 | 6.0 | 0.00 | 0.00 | 0.00 | 51 | 1011.1 |
| 20260902220053 | 85 | 331 | 2.0 | 8.0 | 0.00 | 0.00 | 0.00 | 51 | 1011.2 |
| 20260902214544 | 86 | 342 | 2.0 | 4.0 | 0.00 | 0.00 | 0.00 | 51 | 1011.2 |
| 20260902213108 | 86 | 338 | 1.0 | 8.0 | 0.00 | 0.00 | 0.00 | 51 | 1011.3 |
| 20260902211551 | 86 | 12 | 2.0 | 8.0 | 0.00 | 0.00 | 0.00 | 51 | 1011.4 |
| 20260902210049 | 86 | 47 | 2.0 | 5.0 | 0.00 | 0.00 | 0.00 | 52 | 1011.4 |
| 20260902204548 | 87 | 325 | 1.0 | 5.0 | 0.00 | 0.00 | 0.00 | 50 | 1011.4 |
| 20260902203104 | 86 | 192 | 1.0 | 7.0 | 0.00 | 0.00 | 0.00 | 49 | 1011.6 |
| 20260902201547 | 86 | 0 | 2.0 | 5.0 | 0.00 | 0.00 | 0.00 | 50 | 1011.6 |
| 20260902200059 | 86 | 315 | 1.0 | 4.0 | 0.00 | 0.00 | 0.00 | 52 | 1011.7 |
| 20260902194555 | 85 | 327 | 1.0 | 4.0 | 0.00 | 0.00 | 0.00 | 51 | 1011.9 |
| 20260902193056 | 84 | 326 | 2.0 | 5.0 | 0.00 | 0.00 | 0.00 | 51 | 1012.0 |
| 20260902191554 | 85 | 335 | 3.0 | 8.0 | 0.00 | 0.00 | 0.00 | 50 | 1012.1 |
| 20260902190049 | 84 | 296 | 1.0 | 3.0 | 0.00 | 0.00 | 0.00 | 52 | 1012.3 |
| 20260902184601 | 83 | 24 | 3.0 | 9.0 | 0.00 | 0.00 | 0.00 | 54 | 1012.4 |
| 20260902183107 | 83 | 344 | 1.0 | 4.0 | 0.00 | 0.00 | 0.00 | 54 | 1012.5 |
| 20260902181552 | 82 | 5 | 1.0 | 4.0 | 0.00 | 0.00 | 0.00 | 56 | 1012.7 |
| 20260902180051 | 81 | 360 | 1.0 | 6.0 | 0.00 | 0.00 | 0.00 | 56 | 1012.9 |
| 20260902174547 | 80 | 323 | 1.0 | 4.0 | 0.00 | 0.00 | 0.00 | 59 | 1013.0 |
| 20260902173056 | 80 | 323 | 1.0 | 5.0 | 0.00 | 0.00 | 0.00 | 60 | 1013.1 |
| 20260902171558 | 79 | 340 | 1.0 | 5.0 | 0.00 | 0.00 | 0.00 | 62 | 1013.4 |
| 20260902170049 | 78 | 41 | 1.0 | 5.0 | 0.00 | 0.00 | 0.00 | 62 | 1013.3 |
| 20260902164550 | 77 | 333 | 1.0 | 5.0 | 0.00 | 0.00 | 0.00 | 63 | 1013.4 |
| 20260902163107 | 76 | 211 | 2.0 | 5.0 | 0.00 | 0.00 | 0.00 | 67 | 1013.4 |
| 20260902161550 | 76 | 340 | 1.0 | 4.0 | 0.00 | 0.00 | 0.00 | 67 | 1013.4 |
| 20260902154557 | 76 | 248 | 2.0 | 5.0 | 0.00 | 0.00 | 0.00 | 68 | 1013.4 |
| 20260902153050 | 75 | 0 | 0.0 | 2.0 | 0.00 | 0.00 | 0.00 | 69 | 1013.3 |
| 20260902151553 | 74 | 0 | 0.0 | 3.0 | 0.00 | 0.00 | 0.00 | 69 | 1013.2 |
| 20260902150046 | 74 | 0 | 0.0 | 2.0 | 0.00 | 0.00 | 0.00 | 72 | 1013.4 |
| 20260902144554 | 74 | 139 | 0.0 | 4.0 | 0.00 | 0.00 | 0.00 | 72 | 1013.3 |
| 20260902143052 | 73 | 128 | 1.0 | 4.0 | 0.00 | 0.00 | 0.00 | 72 | 1013.2 |
| 20260902141554 | 73 | 352 | 1.0 | 3.0 | 0.00 | 0.00 | 0.00 | 73 | 1013.2 |
| 20260902140047 | 72 | 0 | 0.0 | 1.0 | 0.00 | 0.00 | 0.00 | 74 | 1013.6 |
| 20260902134558 | 71 | 314 | 1.0 | 2.0 | 0.00 | 0.00 | 0.00 | 75 | 1013.7 |
| 20260902133047 | 69 | 0 | 0.0 | 2.0 | 0.00 | 0.00 | 0.00 | 80 | 1013.6 |
| 20260902131606 | 67 | 0 | 0.0 | 2.0 | 0.00 | 0.00 | 0.00 | 83 | 1013.5 |
| 20260902130047 | 66 | 136 | 0.0 | 1.0 | 0.00 | 0.00 | 0.00 | 84 | 1013.4 |
| 20260902124554 | 66 | 0 | 0.0 | 0.0 | 0.00 | 0.00 | 0.00 | 85 | 1013.7 |
| 20260902123105 | 66 | 0 | 0.0 | 0.0 | 0.00 | 0.00 | 0.00 | 85 | 1013.7 |
| 20260902121556 | 66 | 0 | 0.0 | 0.0 | 0.00 | 0.00 | 0.00 | 85 | 1013.5 |
| 20260902120100 | 66 | 0 | 0.0 | 1.0 | 0.00 | 0.00 | 0.00 | 84 | 1013.4 |
| 20260902114553 | 67 | 0 | 0.0 | 1.0 | 0.00 | 0.00 | 0.00 | 84 | 1013.6 |
| 20260902113051 | 67 | 0 | 0.0 | 0.0 | 0.00 | 0.00 | 0.00 | 83 | 1013.7 |
| 20260902111555 | 67 | 0 | 0.0 | 0.0 | 0.00 | 0.00 | 0.00 | 82 | 1013.5 |
| 20260902110047 | 67 | 0 | 0.0 | 0.0 | 0.00 | 0.00 | 0.00 | 81 | 1013.6 |
| 20260902104553 | 68 | 0 | 0.0 | 2.0 | 0.00 | 0.00 | 0.00 | 80 | 1013.6 |
| 20260902103048 | 68 | 0 | 0.0 | 0.0 | 0.00 | 0.00 | 0.00 | 80 | 1013.7 |
| 20260902101546 | 68 | 0 | 0.0 | 0.0 | 0.00 | 0.00 | 0.00 | 79 | 1013.5 |